When you browse on this site, cookies collect data to enhance your experience and personalize the content and advertising you see.
Visit our Privacy Policy to learn more. By continuing to use the site, you agree to this use of cookies and data.
  • In Sweden
  • List of Countries
  • For 7 days
  • Water Temperature
  • Weather Map
  • Weather Widgets
  • user-avatar
    Login

    Hourly Weather Bujumbura

    Today, 10 April, Friday

    Time Temperature Precipitation Wind Pressure Humidity
    00:00 +23°C° 0 mm 1 mps 692 mmHg 87%
    01:00 +23°C° 0 mm 1 mps 692 mmHg 87%
    02:00 +23°C° 0 mm 1 mps 692 mmHg 88%
    03:00 +23°C° 0 mm 1 mps 692 mmHg 88%
    04:00 +23°C° 0 mm 1 mps 692 mmHg 88%
    05:00 +23°C° 0 mm 1 mps 692 mmHg 89%
    06:00 +24°C° 0 mm 1 mps 692 mmHg 87%
    07:00 +25°C° 0 mm 1 mps 693 mmHg 86%
    08:00 +26°C° 0 mm 2 mps 694 mmHg 85%
    09:00 +27°C° 0.2 mm 2 mps 694 mmHg 81%
    10:00 +28°C° 0.2 mm 2 mps 693 mmHg 77%
    11:00 +29°C° 0.2 mm 2 mps 693 mmHg 73%
    12:00 +29°C° 0.4 mm 2 mps 692 mmHg 74%
    13:00 +29°C° 0.4 mm 3 mps 691 mmHg 76%
    14:00 +29°C° 0.4 mm 3 mps 690 mmHg 77%
    15:00 +29°C° 0.7 mm 3 mps 690 mmHg 79%
    16:00 +28°C° 0.7 mm 2 mps 690 mmHg 82%
    17:00 +28°C° 0.7 mm 2 mps 690 mmHg 84%
    18:00 +27°C° 0.4 mm 2 mps 691 mmHg 86%
    19:00 +25°C° 0.4 mm 2 mps 691 mmHg 89%
    20:00 +24°C° 0.4 mm 1 mps 692 mmHg 91%
    21:00 +24°C° 0.4 mm 1 mps 692 mmHg 91%
    22:00 +24°C° 0.4 mm 1 mps 692 mmHg 92%
    23:00 +24°C° 0.4 mm 1 mps 692 mmHg 92%

    Tomorrow, 11 April, Saturday

    Time Temperature Precipitation Wind Pressure Humidity
    00:00 +23°C° 0.1 mm 1 mps 692 mmHg 92%
    01:00 +23°C° 0.1 mm 1 mps 692 mmHg 92%
    02:00 +23°C° 0.1 mm 1 mps 692 mmHg 92%
    03:00 +23°C° 0 mm 1 mps 692 mmHg 92%
    04:00 +23°C° 0 mm 2 mps 692 mmHg 92%
    05:00 +23°C° 0 mm 2 mps 692 mmHg 92%
    06:00 +24°C° 0.1 mm 2 mps 692 mmHg 91%
    07:00 +25°C° 0.1 mm 2 mps 693 mmHg 89%
    08:00 +26°C° 0.1 mm 2 mps 694 mmHg 87%
    09:00 +27°C° 0.4 mm 1 mps 693 mmHg 84%
    10:00 +28°C° 0.4 mm 1 mps 693 mmHg 80%
    11:00 +29°C° 0.4 mm 1 mps 693 mmHg 77%
    12:00 +29°C° 0.5 mm 1 mps 692 mmHg 76%
    13:00 +30°C° 0.5 mm 2 mps 691 mmHg 75%
    14:00 +30°C° 0.5 mm 2 mps 691 mmHg 74%
    15:00 +29°C° 0.5 mm 2 mps 690 mmHg 77%
    16:00 +28°C° 0.5 mm 2 mps 690 mmHg 81%
    17:00 +28°C° 0.5 mm 2 mps 690 mmHg 85%
    18:00 +27°C° 0.1 mm 2 mps 690 mmHg 87%
    19:00 +26°C° 0.1 mm 2 mps 691 mmHg 89%
    20:00 +25°C° 0.1 mm 2 mps 692 mmHg 91%
    21:00 +24°C° 0.3 mm 1 mps 692 mmHg 91%
    22:00 +24°C° 0.3 mm 1 mps 692 mmHg 91%
    23:00 +23°C° 0.3 mm 1 mps 692 mmHg 91%

    Day after tomorrow, 12 April, Sunday

    Time Temperature Precipitation Wind Pressure Humidity
    00:00 +23°C° 0 mm 1 mps 692 mmHg 92%
    01:00 +23°C° 0 mm 1 mps 692 mmHg 92%
    02:00 +23°C° 0 mm 1 mps 692 mmHg 92%
    03:00 +23°C° 0 mm 1 mps 691 mmHg 92%
    04:00 +23°C° 0 mm 1 mps 691 mmHg 92%
    05:00 +23°C° 0 mm 2 mps 691 mmHg 92%
    06:00 +24°C° 0 mm 1 mps 692 mmHg 90%
    07:00 +25°C° 0 mm 1 mps 693 mmHg 88%
    08:00 +26°C° 0 mm 1 mps 694 mmHg 86%
    09:00 +27°C° 0.3 mm 1 mps 693 mmHg 82%
    10:00 +29°C° 0.3 mm 1 mps 693 mmHg 78%
    11:00 +30°C° 0.3 mm 1 mps 693 mmHg 74%
    12:00 +30°C° 0.4 mm 1 mps 692 mmHg 73%
    13:00 +31°C° 0.4 mm 1 mps 691 mmHg 72%
    14:00 +31°C° 0.4 mm 1 mps 691 mmHg 71%
    15:00 +30°C° 0.5 mm 1 mps 690 mmHg 75%
    16:00 +29°C° 0.5 mm 1 mps 690 mmHg 80%
    17:00 +28°C° 0.5 mm 2 mps 690 mmHg 85%
    18:00 +27°C° 0.4 mm 2 mps 690 mmHg 87%
    19:00 +26°C° 0.4 mm 1 mps 691 mmHg 89%
    20:00 +25°C° 0.4 mm 1 mps 692 mmHg 91%
    21:00 +24°C° 0.3 mm 1 mps 692 mmHg 90%
    22:00 +24°C° 0.3 mm 1 mps 692 mmHg 89%
    23:00 +24°C° 0.3 mm 1 mps 692 mmHg 89%

    13 April, Monday

    Time Temperature Precipitation Wind Pressure Humidity
    00:00 +24°C° 0.2 mm 1 mps 692 mmHg 89%
    01:00 +23°C° 0.2 mm 1 mps 691 mmHg 88%
    02:00 +23°C° 0.2 mm 1 mps 691 mmHg 88%
    03:00 +23°C° 0.1 mm 1 mps 691 mmHg 88%
    04:00 +23°C° 0.1 mm 1 mps 691 mmHg 88%
    05:00 +23°C° 0.1 mm 1 mps 691 mmHg 88%
    06:00 +24°C° 0.3 mm 1 mps 692 mmHg 87%
    07:00 +25°C° 0.3 mm 1 mps 693 mmHg 86%
    08:00 +24°C° 0.3 mm 0 mps 694 mmHg 86%
    09:00 +27°C° 0.8 mm 1 mps 694 mmHg 85%
    10:00 +27°C° 0.8 mm 2 mps 693 mmHg 85%
    11:00 +28°C° 0.8 mm 3 mps 693 mmHg 84%
    12:00 +28°C° 1.2 mm 3 mps 692 mmHg 84%
    13:00 +28°C° 1.2 mm 3 mps 691 mmHg 84%
    14:00 +28°C° 1.2 mm 2 mps 690 mmHg 84%
    15:00 +28°C° 0.8 mm 2 mps 690 mmHg 86%
    16:00 +27°C° 0.8 mm 1 mps 690 mmHg 87%
    17:00 +27°C° 0.8 mm 1 mps 690 mmHg 89%
    18:00 +26°C° 0.4 mm 1 mps 690 mmHg 90%
    19:00 +23°C° 0.4 mm 0 mps 691 mmHg 91%
    20:00 +22°C° 0.4 mm 0 mps 691 mmHg 92%
    21:00 +22°C° 0.1 mm 0 mps 691 mmHg 91%
    22:00 +24°C° 0.1 mm 1 mps 692 mmHg 90%
    23:00 +24°C° 0.1 mm 1 mps 692 mmHg 89%

    14 April, Tuesday

    Time Temperature Precipitation Wind Pressure Humidity
    00:00 +24°C° 0.2 mm 1 mps 692 mmHg 89%
    01:00 +23°C° 0.2 mm 1 mps 691 mmHg 89%
    02:00 +23°C° 0.2 mm 1 mps 691 mmHg 88%
    03:00 +23°C° 0.3 mm 1 mps 691 mmHg 88%
    04:00 +23°C° 0.3 mm 1 mps 691 mmHg 89%
    05:00 +23°C° 0.3 mm 1 mps 691 mmHg 89%
    06:00 +24°C° 0.7 mm 1 mps 692 mmHg 90%
    07:00 +24°C° 0.7 mm 1 mps 692 mmHg 91%
    08:00 +24°C° 0.7 mm 1 mps 693 mmHg 92%
    09:00 +24°C° 0.5 mm 1 mps 693 mmHg 92%
    10:00 +25°C° 0.5 mm 1 mps 693 mmHg 91%
    11:00 +23°C° 0.5 mm 0 mps 693 mmHg 90%
    12:00 +27°C° 0.2 mm 1 mps 692 mmHg 85%
    13:00 +28°C° 0.2 mm 1 mps 691 mmHg 80%
    14:00 +30°C° 0.2 mm 1 mps 690 mmHg 75%
    15:00 +29°C° 0.6 mm 1 mps 690 mmHg 78%
    16:00 +28°C° 0.6 mm 1 mps 690 mmHg 81%
    17:00 +28°C° 0.6 mm 1 mps 690 mmHg 84%
    18:00 +27°C° 0.2 mm 1 mps 691 mmHg 86%
    19:00 +26°C° 0.2 mm 1 mps 691 mmHg 87%
    20:00 +25°C° 0.2 mm 1 mps 692 mmHg 88%
    21:00 +24°C° 0.1 mm 1 mps 692 mmHg 88%
    22:00 +24°C° 0.1 mm 1 mps 692 mmHg 88%
    23:00 +22°C° 0.1 mm 0 mps 693 mmHg 87%

    15 April, Wednesday

    Time Temperature Precipitation Wind Pressure Humidity
    00:00 +24°C° 0.3 mm 1 mps 692 mmHg 88%
    01:00 +24°C° 0.3 mm 1 mps 692 mmHg 89%
    02:00 +24°C° 0.3 mm 1 mps 692 mmHg 90%
    03:00 +24°C° 0.5 mm 1 mps 692 mmHg 91%
    04:00 +24°C° 0.5 mm 1 mps 692 mmHg 92%
    05:00 +24°C° 0.5 mm 1 mps 692 mmHg 93%
    06:00 +24°C° 0.4 mm 1 mps 693 mmHg 93%
    07:00 +24°C° 0.4 mm 1 mps 693 mmHg 93%
    08:00 +24°C° 0.4 mm 1 mps 694 mmHg 92%
    09:00 +25°C° 0.2 mm 1 mps 694 mmHg 92%
    10:00 +25°C° 0.2 mm 1 mps 694 mmHg 91%
    11:00 +24°C° 0.2 mm 0 mps 694 mmHg 91%
    12:00 +24°C° 0.6 mm 0 mps 693 mmHg 89%
    13:00 +26°C° 0.6 mm 1 mps 692 mmHg 88%
    14:00 +27°C° 0.6 mm 1 mps 692 mmHg 87%
    15:00 +26°C° 1 mm 1 mps 692 mmHg 89%
    16:00 +26°C° 1 mm 1 mps 692 mmHg 92%
    17:00 +25°C° 1 mm 2 mps 692 mmHg 94%
    18:00 +25°C° 2.8 mm 2 mps 692 mmHg 95%
    19:00 +24°C° 2.8 mm 1 mps 692 mmHg 96%
    20:00 +24°C° 2.8 mm 1 mps 692 mmHg 97%
    21:00 +24°C° 1.9 mm 1 mps 692 mmHg 96%
    22:00 +24°C° 1.9 mm 1 mps 693 mmHg 96%
    23:00 +23°C° 1.9 mm 2 mps 693 mmHg 96%
    Show more